BAW629 LGAV-EGLL

Flight info

Callsign BAW629
Flight time N/A
Altitude 34000
Route KOR1N KOR UL53 IXONI DCT YNN UL611 TUMBO DCT OVVER DCT RODON DCT VAKSU DCT AMUGO DCT UVODI DCT UMSON DCT IXONA DCT RESIA DCT ELMUR L613 HOC DCT LUL/N0435F360 DCT RLP DCT ROTSI DCT KOTUN DCT NINAL DCT ABNUR DCT DIMAL DCT ALESO ALESO1H
Aircraft A21N/M-SDE3FGHIJ1LRWXYZ/SB1G1

Departure

Time 2026-05-04 12:38
Airport Athens Eleftherios Venizelos International Airport (LGAV)

Arrival

Time N/A
Airport London Heathrow Airport (EGLL)
Time Latitude Longitude Altitude Speed Heading
2026-05-04 11:24 37.93410 23.94656 307 ft 0 kts 308°
2026-05-04 12:23 37.93401 23.94670 307 ft 4 kts 308°
2026-05-04 12:23 37.93388 23.94691 309 ft 3 kts 308°
2026-05-04 12:23 37.93376 23.94719 306 ft 4 kts 277°
2026-05-04 12:24 37.93380 23.94748 306 ft 4 kts 229°
2026-05-04 12:24 37.93387 23.94756 307 ft 2 kts 217°
2026-05-04 12:29 37.93385 23.94755 306 ft 1 kts 217°
2026-05-04 12:29 37.93372 23.94742 306 ft 4 kts 217°
2026-05-04 12:29 37.93358 23.94729 307 ft 3 kts 217°
2026-05-04 12:29 37.93332 23.94704 306 ft 6 kts 217°
2026-05-04 12:30 37.93288 23.94661 310 ft 10 kts 217°
2026-05-04 12:30 37.93229 23.94607 308 ft 11 kts 203°
2026-05-04 12:30 37.93146 23.94592 306 ft 12 kts 182°
2026-05-04 12:30 37.93079 23.94633 306 ft 12 kts 126°
2026-05-04 12:31 37.93013 23.94672 306 ft 12 kts 200°
2026-05-04 12:31 37.92939 23.94607 307 ft 14 kts 217°
2026-05-04 12:31 37.92859 23.94530 308 ft 15 kts 217°
2026-05-04 12:31 37.92772 23.94447 309 ft 16 kts 217°
2026-05-04 12:32 37.92676 23.94358 311 ft 18 kts 217°
2026-05-04 12:32 37.92510 23.94199 310 ft 11 kts 217°
2026-05-04 12:32 37.92455 23.94156 308 ft 9 kts 186°
2026-05-04 12:33 37.92418 23.94182 308 ft 6 kts 125°
2026-05-04 12:33 37.92410 23.94219 310 ft 0 kts 89°
2026-05-04 12:34 37.92410 23.94224 310 ft 2 kts 89°
2026-05-04 12:34 37.92411 23.94259 311 ft 6 kts 86°
2026-05-04 12:34 37.92404 23.94320 312 ft 8 kts 115°
2026-05-04 12:35 37.92396 23.94365 314 ft 5 kts 51°
2026-05-04 12:35 37.92411 23.94381 313 ft 0 kts 39°
2026-05-04 12:37 37.92415 23.94385 314 ft 6 kts 39°
2026-05-04 12:37 37.92530 23.94497 312 ft 57 kts 37°
2026-05-04 12:37 37.93043 23.94982 301 ft 124 kts 37°
2026-05-04 12:37 37.94168 23.96043 560 ft 162 kts 39°
2026-05-04 12:38 37.94773 23.96629 986 ft 163 kts 39°
2026-05-04 12:38 37.95682 23.97504 1653 ft 167 kts 33°
2026-05-04 12:38 37.96648 23.98424 2153 ft 181 kts 32°
2026-05-04 12:38 37.97695 23.99439 2635 ft 199 kts 32°
2026-05-04 12:39 37.98868 24.00570 3019 ft 224 kts 33°
2026-05-04 12:39 38.00244 24.01529 3602 ft 234 kts 11°
2026-05-04 12:39 38.01876 24.01531 4407 ft 234 kts 343°
2026-05-04 12:39 38.03323 24.00640 5243 ft 235 kts 327°
2026-05-04 12:40 38.04687 23.99487 6133 ft 236 kts 325°
2026-05-04 12:40 38.06049 23.98304 6950 ft 239 kts 325°
2026-05-04 12:40 38.07323 23.96863 7490 ft 255 kts 306°
2026-05-04 12:40 38.08184 23.94850 8137 ft 262 kts 296°
2026-05-04 12:41 38.08924 23.92712 8927 ft 267 kts 295°
2026-05-04 12:41 38.09646 23.90508 9711 ft 273 kts 295°
2026-05-04 12:41 38.10178 23.88143 10363 ft 286 kts 284°
2026-05-04 12:41 38.10524 23.85565 10765 ft 305 kts 282°
2026-05-04 12:42 38.10870 23.82863 11347 ft 315 kts 282°
2026-05-04 12:42 38.11225 23.80100 12063 ft 320 kts 283°
2026-05-04 12:42 38.11596 23.77290 12803 ft 324 kts 283°
2026-05-04 12:42 38.11977 23.74448 13517 ft 329 kts 283°
2026-05-04 12:43 38.12365 23.71575 14277 ft 330 kts 284°
2026-05-04 12:43 38.12757 23.68681 14930 ft 334 kts 283°
2026-05-04 12:43 38.13145 23.65792 15570 ft 339 kts 283°
2026-05-04 12:43 38.13541 23.62822 16208 ft 342 kts 283°
2026-05-04 12:44 38.13944 23.59823 16844 ft 347 kts 283°
2026-05-04 12:44 38.14353 23.56784 17474 ft 351 kts 282°
2026-05-04 12:44 38.15022 23.53809 18081 ft 351 kts 298°
2026-05-04 12:44 38.16367 23.51224 18605 ft 353 kts 310°
2026-05-04 12:45 38.17966 23.48841 19140 ft 356 kts 313°
2026-05-04 12:45 38.19594 23.46451 19710 ft 359 kts 312°
2026-05-04 12:45 38.21210 23.44030 20312 ft 359 kts 313°
2026-05-04 12:45 38.22813 23.41602 20985 ft 357 kts 312°
2026-05-04 12:46 38.24392 23.39191 21794 ft 353 kts 312°
2026-05-04 12:46 38.25958 23.36788 22454 ft 352 kts 312°
2026-05-04 12:46 38.27522 23.34380 23045 ft 353 kts 313°
2026-05-04 12:46 38.29096 23.31964 23613 ft 355 kts 313°
2026-05-04 12:47 38.30678 23.29532 24089 ft 357 kts 313°
2026-05-04 12:47 38.32264 23.27099 24559 ft 358 kts 313°
2026-05-04 12:47 38.33857 23.24653 25030 ft 359 kts 313°
2026-05-04 12:47 38.35446 23.22208 25488 ft 360 kts 313°
2026-05-04 12:48 38.37047 23.19746 25939 ft 361 kts 313°
2026-05-04 12:48 38.38654 23.17279 26377 ft 362 kts 313°
2026-05-04 12:48 38.40243 23.14845 26801 ft 363 kts 313°
2026-05-04 12:48 38.41861 23.12357 27221 ft 365 kts 313°
2026-05-04 12:49 38.43477 23.09859 27612 ft 365 kts 313°
2026-05-04 12:49 38.45108 23.07338 28150 ft 362 kts 313°
2026-05-04 12:49 38.46721 23.04869 28586 ft 362 kts 313°
2026-05-04 12:49 38.48310 23.02419 28948 ft 364 kts 313°
2026-05-04 12:50 38.49925 22.99916 29294 ft 365 kts 313°
2026-05-04 12:50 38.51539 22.97405 29631 ft 367 kts 312°
2026-05-04 12:50 38.53158 22.94881 29964 ft 369 kts 313°
2026-05-04 12:50 38.54796 22.92341 30284 ft 370 kts 313°
2026-05-04 12:51 38.56436 22.89799 30555 ft 372 kts 312°
2026-05-04 12:51 38.58079 22.87234 30804 ft 374 kts 312°
2026-05-04 12:51 38.59720 22.84660 31074 ft 375 kts 312°
2026-05-04 12:51 38.61376 22.82064 31312 ft 377 kts 313°
2026-05-04 12:52 38.63040 22.79466 31464 ft 381 kts 312°
2026-05-04 12:52 38.64728 22.76832 31651 ft 383 kts 313°
2026-05-04 12:52 38.66413 22.74201 31970 ft 382 kts 313°
2026-05-04 12:52 38.68113 22.71571 32246 ft 382 kts 313°
2026-05-04 12:53 38.69815 22.68952 32460 ft 385 kts 313°
2026-05-04 12:53 38.71521 22.66306 32663 ft 387 kts 313°
2026-05-04 12:53 38.73235 22.63634 32887 ft 389 kts 313°
2026-05-04 12:53 38.74955 22.60946 33106 ft 390 kts 313°
2026-05-04 12:54 38.76679 22.58245 33328 ft 391 kts 313°
2026-05-04 12:54 38.78402 22.55539 33593 ft 391 kts 313°
2026-05-04 12:54 38.80120 22.52835 33882 ft 391 kts 313°
2026-05-04 12:54 38.81834 22.50137 34119 ft 390 kts 313°
2026-05-04 12:55 38.83550 22.47439 34159 ft 389 kts 313°
2026-05-04 12:55 38.86942 22.42099 34129 ft 388 kts 312°
2026-05-04 12:56 38.90346 22.36722 34126 ft 388 kts 312°
2026-05-04 12:56 38.93745 22.31342 34129 ft 388 kts 312°
2026-05-04 12:57 38.97160 22.25936 34129 ft 390 kts 313°
2026-05-04 12:57 39.00584 22.20502 34129 ft 390 kts 313°
2026-05-04 12:58 39.04003 22.15066 34128 ft 391 kts 312°
2026-05-04 12:58 39.07413 22.09632 34111 ft 389 kts 312°
2026-05-04 12:59 39.10811 22.04215 34118 ft 389 kts 312°
2026-05-04 12:59 39.14206 21.98792 34121 ft 389 kts 312°
2026-05-04 13:00 39.17597 21.93357 34123 ft 389 kts 312°
2026-05-04 13:00 39.20971 21.87959 34118 ft 389 kts 312°
2026-05-04 13:01 39.24356 21.82518 34118 ft 389 kts 312°
2026-05-04 13:01 39.27734 21.77062 34096 ft 390 kts 311°
2026-05-04 13:02 39.31115 21.71586 34108 ft 390 kts 311°
2026-05-04 13:02 39.34496 21.66094 34109 ft 390 kts 311°
2026-05-04 13:03 39.37882 21.60623 34113 ft 390 kts 312°
2026-05-04 13:03 39.41266 21.55210 34109 ft 389 kts 312°
2026-05-04 13:04 39.44668 21.49704 34114 ft 388 kts 311°
2026-05-04 13:04 39.47976 21.44322 34111 ft 383 kts 312°
2026-05-04 13:05 39.51294 21.38917 34124 ft 383 kts 311°
2026-05-04 13:05 39.54614 21.33509 34117 ft 383 kts 311°
2026-05-04 13:06 39.57916 21.28111 34115 ft 383 kts 311°
2026-05-04 13:06 39.61216 21.22674 34114 ft 384 kts 311°
2026-05-04 13:07 39.64515 21.17218 34106 ft 384 kts 311°
2026-05-04 13:07 39.67846 21.11801 34091 ft 384 kts 311°
2026-05-04 13:08 39.71175 21.06351 34107 ft 385 kts 311°
2026-05-04 13:08 39.74493 21.00880 34108 ft 385 kts 311°
2026-05-04 13:09 39.77809 20.95411 34111 ft 385 kts 311°
2026-05-04 13:09 39.81118 20.89936 34112 ft 385 kts 311°
2026-05-04 13:10 39.84424 20.84465 34109 ft 385 kts 311°
2026-05-04 13:10 39.87712 20.79004 34084 ft 386 kts 311°
2026-05-04 13:11 39.91033 20.73482 34096 ft 388 kts 311°
2026-05-04 13:11 39.94355 20.67941 34096 ft 388 kts 311°
2026-05-04 13:12 39.97687 20.62398 34091 ft 388 kts 311°
2026-05-04 13:12 40.01011 20.56842 34090 ft 388 kts 311°
2026-05-04 13:13 40.04330 20.51283 34086 ft 389 kts 311°
2026-05-04 13:13 40.07951 20.46090 34077 ft 385 kts 322°
2026-05-04 13:14 40.12221 20.41942 34086 ft 380 kts 324°
2026-05-04 13:14 40.16492 20.37856 34097 ft 381 kts 324°
2026-05-04 13:15 40.20743 20.33765 34095 ft 382 kts 324°
2026-05-04 13:15 40.25026 20.29627 34093 ft 383 kts 324°
2026-05-04 13:16 40.29303 20.25480 34092 ft 382 kts 324°
2026-05-04 13:16 40.33576 20.21338 34095 ft 382 kts 324°
2026-05-04 13:17 40.37846 20.17197 34096 ft 382 kts 324°
2026-05-04 13:17 40.42116 20.13040 34079 ft 384 kts 324°
2026-05-04 13:18 40.46394 20.08868 34096 ft 383 kts 324°
2026-05-04 13:18 40.50672 20.04695 34104 ft 382 kts 324°
2026-05-04 13:19 40.54946 20.00518 34105 ft 383 kts 324°
2026-05-04 13:19 40.59225 19.96328 34107 ft 383 kts 324°
2026-05-04 13:20 40.63508 19.92127 34107 ft 384 kts 324°
2026-05-04 13:20 40.67793 19.87920 34111 ft 386 kts 324°
2026-05-04 13:21 40.72092 19.83684 34107 ft 386 kts 324°
2026-05-04 13:21 40.76356 19.79482 34082 ft 385 kts 324°
2026-05-04 13:22 40.80628 19.75263 34111 ft 382 kts 324°
2026-05-04 13:22 40.84884 19.71054 34115 ft 382 kts 324°
2026-05-04 13:23 40.89139 19.66833 34118 ft 382 kts 324°
2026-05-04 13:23 40.93405 19.62605 34125 ft 384 kts 324°
2026-05-04 13:24 40.96965 19.59071 34120 ft 385 kts 324°
2026-05-04 13:24 41.01234 19.54819 34121 ft 384 kts 324°
2026-05-04 13:25 41.07644 19.48432 34126 ft 384 kts 324°
2026-05-04 13:25 41.11911 19.44165 34111 ft 384 kts 323°
2026-05-04 13:26 41.16178 19.39893 34124 ft 384 kts 323°
2026-05-04 13:26 41.20440 19.35617 34125 ft 384 kts 323°
2026-05-04 13:27 41.24677 19.31360 34127 ft 384 kts 323°
2026-05-04 13:27 41.28939 19.27071 34125 ft 384 kts 323°
2026-05-04 13:28 41.33195 19.22785 34127 ft 383 kts 323°
2026-05-04 13:28 41.37453 19.18487 34127 ft 383 kts 323°
2026-05-04 13:29 41.41703 19.14191 34117 ft 384 kts 323°
2026-05-04 13:29 41.45967 19.09872 34114 ft 385 kts 323°
2026-05-04 13:30 41.50234 19.05519 34126 ft 387 kts 323°
2026-05-04 13:30 41.54487 19.01170 34125 ft 387 kts 323°
2026-05-04 13:31 41.58758 18.96797 34131 ft 387 kts 323°
2026-05-04 13:31 41.63028 18.92412 34117 ft 387 kts 323°
2026-05-04 13:32 41.67304 18.88022 34136 ft 387 kts 323°
2026-05-04 13:32 41.71577 18.83627 34127 ft 387 kts 323°
2026-05-04 13:33 41.75846 18.79227 34123 ft 387 kts 323°
2026-05-04 13:33 41.80124 18.74805 34125 ft 389 kts 322°
2026-05-04 13:34 41.84419 18.70360 34127 ft 390 kts 322°
2026-05-04 13:34 41.88690 18.65936 34129 ft 390 kts 322°
2026-05-04 13:35 41.95129 18.59250 34134 ft 390 kts 322°
2026-05-04 13:36 41.99416 18.54788 34133 ft 390 kts 322°
2026-05-04 13:36 42.03235 18.49600 34120 ft 393 kts 310°
2026-05-04 13:37 42.06550 18.43735 34135 ft 394 kts 309°
2026-05-04 13:37 42.09876 18.37844 34137 ft 396 kts 309°
2026-05-04 13:38 42.13222 18.31948 34138 ft 396 kts 309°
2026-05-04 13:38 42.16542 18.26082 34146 ft 396 kts 309°
2026-05-04 13:39 42.19879 18.20180 34145 ft 396 kts 309°
2026-05-04 13:39 42.23207 18.14262 34144 ft 396 kts 308°
2026-05-04 13:40 42.26514 18.08322 34143 ft 395 kts 309°
2026-05-04 13:40 42.29833 18.02398 34144 ft 395 kts 309°
2026-05-04 13:41 42.33151 17.96468 34144 ft 395 kts 309°
2026-05-04 13:41 42.36475 17.90549 34144 ft 395 kts 309°
2026-05-04 13:42 42.41461 17.81661 34133 ft 395 kts 309°
2026-05-04 13:42 42.44764 17.75783 34139 ft 395 kts 309°
2026-05-04 13:43 42.48079 17.69819 34132 ft 397 kts 308°
2026-05-04 13:43 42.51400 17.63823 34135 ft 398 kts 308°
2026-05-04 13:44 42.54723 17.57827 34132 ft 398 kts 308°
2026-05-04 13:44 42.58055 17.51805 34133 ft 399 kts 308°
2026-05-04 13:45 42.61381 17.45779 34132 ft 399 kts 308°
2026-05-04 13:45 42.64701 17.39742 34129 ft 399 kts 308°
2026-05-04 13:46 42.68034 17.33678 34129 ft 401 kts 308°
2026-05-04 13:46 42.71375 17.27587 34127 ft 402 kts 308°
2026-05-04 13:47 42.74712 17.21494 34127 ft 402 kts 308°
2026-05-04 13:47 42.78022 17.15435 34123 ft 402 kts 308°
2026-05-04 13:48 42.81349 17.09326 34124 ft 402 kts 307°
2026-05-04 13:48 42.84675 17.03207 34113 ft 402 kts 307°
2026-05-04 13:49 42.88012 16.97060 34121 ft 404 kts 307°
2026-05-04 13:49 42.91354 16.90894 34118 ft 404 kts 307°
2026-05-04 13:50 42.94689 16.84710 34121 ft 404 kts 307°
2026-05-04 13:50 42.98015 16.78502 34124 ft 404 kts 307°
2026-05-04 13:51 43.01341 16.72293 34122 ft 405 kts 307°
2026-05-04 13:51 43.04649 16.66125 34116 ft 406 kts 307°
2026-05-04 13:52 43.09654 16.56766 34122 ft 406 kts 307°
2026-05-04 13:53 43.13002 16.50529 34121 ft 407 kts 307°
2026-05-04 13:53 43.16363 16.44275 34120 ft 408 kts 307°
2026-05-04 13:54 43.21376 16.34860 34116 ft 408 kts 307°
2026-05-04 13:55 43.26399 16.25379 34132 ft 410 kts 306°
2026-05-04 13:55 43.31429 16.15865 34130 ft 410 kts 306°
2026-05-04 13:56 43.34775 16.09507 34130 ft 410 kts 306°
2026-05-04 13:57 43.39776 15.99965 34128 ft 410 kts 306°
2026-05-04 13:58 43.46476 15.87164 34119 ft 414 kts 306°
2026-05-04 13:58 43.51525 15.77505 34117 ft 414 kts 307°
2026-05-04 13:59 43.55205 15.71406 34118 ft 415 kts 310°
2026-05-04 14:00 43.60848 15.62337 34111 ft 417 kts 310°
2026-05-04 14:00 43.66500 15.53139 34121 ft 419 kts 310°
2026-05-04 14:01 43.70276 15.46987 34116 ft 420 kts 310°
2026-05-04 14:02 43.75925 15.37804 34119 ft 420 kts 310°
2026-05-04 14:02 43.79698 15.31636 34121 ft 420 kts 310°
2026-05-04 14:03 43.83465 15.25456 34121 ft 421 kts 309°
2026-05-04 14:03 43.87245 15.19258 34121 ft 421 kts 309°
2026-05-04 14:04 43.92904 15.09941 34123 ft 420 kts 309°
2026-05-04 14:04 43.96670 15.03723 34118 ft 420 kts 309°
2026-05-04 14:05 44.02310 14.94378 34111 ft 421 kts 309°
2026-05-04 14:06 44.06077 14.88135 34102 ft 422 kts 308°
2026-05-04 14:06 44.09831 14.81903 34104 ft 422 kts 308°
2026-05-04 14:07 44.13595 14.75624 34110 ft 422 kts 308°
2026-05-04 14:07 44.17377 14.69361 34107 ft 422 kts 308°
2026-05-04 14:08 44.21150 14.63084 34109 ft 422 kts 308°
2026-05-04 14:08 44.24911 14.56787 34106 ft 422 kts 308°
2026-05-04 14:09 44.30542 14.47323 34106 ft 422 kts 308°
2026-05-04 14:10 44.36139 14.37873 34107 ft 422 kts 308°
2026-05-04 14:10 44.39870 14.31532 34108 ft 422 kts 308°
2026-05-04 14:11 44.43614 14.25210 34113 ft 422 kts 308°
2026-05-04 14:11 44.49223 14.15690 34107 ft 422 kts 307°
2026-05-04 14:12 44.52319 14.10407 34115 ft 423 kts 308°
2026-05-04 14:13 44.57935 14.00819 34109 ft 425 kts 307°
2026-05-04 14:13 44.61678 13.94405 34110 ft 424 kts 307°
2026-05-04 14:14 44.65408 13.87980 34112 ft 424 kts 307°
2026-05-04 14:14 44.71011 13.78342 34117 ft 424 kts 307°
2026-05-04 14:15 44.78493 13.65409 34112 ft 428 kts 307°
2026-05-04 14:16 44.84118 13.55633 34108 ft 428 kts 306°
2026-05-04 14:17 44.89238 13.45402 34097 ft 428 kts 302°
2026-05-04 14:18 44.94357 13.35017 34090 ft 431 kts 302°
2026-05-04 14:19 45.01176 13.21064 34083 ft 431 kts 302°
2026-05-04 14:19 45.04580 13.14099 34077 ft 430 kts 302°
2026-05-04 14:20 45.07963 13.07122 34069 ft 429 kts 302°
2026-05-04 14:20 45.11337 13.00151 34068 ft 429 kts 302°
2026-05-04 14:21 45.16420 12.89697 34066 ft 429 kts 302°
2026-05-04 14:21 45.19817 12.82742 34062 ft 429 kts 302°
2026-05-04 14:22 45.23198 12.75741 34066 ft 432 kts 302°
2026-05-04 14:22 45.26586 12.68701 34065 ft 433 kts 301°
2026-05-04 14:23 45.31680 12.58089 34067 ft 433 kts 301°
2026-05-04 14:24 45.35044 12.51044 34073 ft 433 kts 301°
2026-05-04 14:24 45.38418 12.43970 34080 ft 432 kts 302°
2026-05-04 14:25 45.41793 12.36842 34075 ft 432 kts 301°
2026-05-04 14:25 45.46840 12.26225 34084 ft 431 kts 301°
2026-05-04 14:26 45.50189 12.19109 34075 ft 431 kts 301°
2026-05-04 14:26 45.53508 12.12048 34080 ft 431 kts 301°
2026-05-04 14:27 45.56847 12.04955 34072 ft 430 kts 301°
2026-05-04 14:27 45.60182 11.97853 34086 ft 430 kts 301°
2026-05-04 14:28 45.63513 11.90741 34086 ft 430 kts 301°
2026-05-04 14:28 45.66819 11.83611 34069 ft 430 kts 301°
2026-05-04 14:29 45.73475 11.69310 34056 ft 432 kts 300°
2026-05-04 14:30 45.76758 11.62179 34057 ft 432 kts 300°
2026-05-04 14:31 45.81737 11.51403 34068 ft 431 kts 301°
2026-05-04 14:32 45.88340 11.37046 34073 ft 431 kts 300°
2026-05-04 14:32 45.91632 11.29863 34076 ft 431 kts 300°
2026-05-04 14:33 45.94935 11.22671 34079 ft 431 kts 300°
2026-05-04 14:33 45.98211 11.15513 34094 ft 430 kts 300°
2026-05-04 14:34 46.01501 11.08301 34117 ft 431 kts 300°
2026-05-04 14:34 46.04776 11.01073 34124 ft 432 kts 300°
2026-05-04 14:35 46.08059 10.93812 34137 ft 433 kts 300°
2026-05-04 14:35 46.11329 10.86537 34141 ft 432 kts 300°
2026-05-04 14:36 46.14603 10.79253 34151 ft 432 kts 299°
2026-05-04 14:36 46.17806 10.72012 34135 ft 429 kts 299°
2026-05-04 14:37 46.21053 10.64775 34118 ft 430 kts 300°
2026-05-04 14:37 46.24306 10.57530 34108 ft 430 kts 300°
2026-05-04 14:38 46.27545 10.50256 34112 ft 430 kts 300°
2026-05-04 14:38 46.30762 10.42987 34126 ft 429 kts 300°
2026-05-04 14:39 46.33976 10.35761 34121 ft 426 kts 300°
2026-05-04 14:39 46.37169 10.28510 34126 ft 426 kts 299°
2026-05-04 14:40 46.41956 10.17657 34133 ft 426 kts 300°
2026-05-04 14:40 46.45140 10.10406 34143 ft 426 kts 299°
2026-05-04 14:41 46.48403 10.03328 34134 ft 426 kts 306°
2026-05-04 14:42 46.56272 9.90382 34145 ft 427 kts 308°
2026-05-04 14:42 46.60223 9.83911 34142 ft 427 kts 308°
2026-05-04 14:43 46.64143 9.77420 34148 ft 427 kts 308°
2026-05-04 14:43 46.68080 9.70913 34138 ft 428 kts 308°
2026-05-04 14:44 46.71979 9.64438 34128 ft 428 kts 308°
2026-05-04 14:44 46.75891 9.57910 34099 ft 427 kts 307°
2026-05-04 14:45 46.79519 9.51074 34086 ft 425 kts 296°
2026-05-04 14:45 46.82326 9.43472 34071 ft 426 kts 295°
2026-05-04 14:46 46.85141 9.35873 34060 ft 425 kts 295°
2026-05-04 14:46 46.87976 9.28291 34040 ft 425 kts 295°
2026-05-04 14:47 46.90809 9.20692 34046 ft 425 kts 295°
2026-05-04 14:47 46.93644 9.13078 34032 ft 426 kts 295°
2026-05-04 14:48 46.96452 9.05522 34024 ft 426 kts 295°
2026-05-04 14:48 46.99289 8.97848 34017 ft 426 kts 295°
2026-05-04 14:49 47.02094 8.90254 34012 ft 426 kts 295°
2026-05-04 14:49 47.04908 8.82614 34026 ft 427 kts 295°
2026-05-04 14:50 47.07715 8.74963 34005 ft 424 kts 294°
2026-05-04 14:50 47.10503 8.67338 33987 ft 424 kts 294°
2026-05-04 14:51 47.13301 8.59688 33983 ft 425 kts 294°
2026-05-04 14:51 47.16088 8.52027 33966 ft 425 kts 294°
2026-05-04 14:52 47.18867 8.44365 33966 ft 424 kts 294°
2026-05-04 14:52 47.21630 8.36701 33962 ft 424 kts 294°
2026-05-04 14:53 47.24400 8.29042 33967 ft 424 kts 294°
2026-05-04 14:53 47.27150 8.21386 33967 ft 427 kts 293°
2026-05-04 14:54 47.29926 8.13654 33967 ft 427 kts 293°
2026-05-04 14:54 47.32691 8.05917 33966 ft 425 kts 292°
2026-05-04 14:55 47.35444 7.98192 33969 ft 425 kts 292°
2026-05-04 14:55 47.38187 7.90467 33975 ft 425 kts 292°
2026-05-04 14:56 47.40930 7.82746 33980 ft 425 kts 292°
2026-05-04 14:56 47.43674 7.74983 33986 ft 425 kts 292°
2026-05-04 14:57 47.46345 7.67203 33988 ft 422 kts 288°
2026-05-04 14:57 47.47958 7.59021 33995 ft 416 kts 279°
2026-05-04 14:58 47.49319 7.50699 34011 ft 416 kts 278°
2026-05-04 14:58 47.50461 7.43776 33994 ft 417 kts 278°
2026-05-04 14:59 47.52078 7.34015 33991 ft 418 kts 278°
2026-05-04 15:00 47.54133 7.21540 34004 ft 417 kts 278°
2026-05-04 15:00 47.55501 7.13186 34008 ft 418 kts 278°
2026-05-04 15:01 47.57545 7.00626 34023 ft 420 kts 278°
2026-05-04 15:01 47.58965 6.93655 34073 ft 431 kts 292°
2026-05-04 15:02 47.60653 6.89935 34293 ft 440 kts 303°
2026-05-04 15:02 47.62604 6.86491 34556 ft 441 kts 305°
2026-05-04 15:02 47.64592 6.83039 34827 ft 440 kts 305°
2026-05-04 15:02 47.66562 6.79567 35065 ft 439 kts 304°
2026-05-04 15:03 47.68518 6.76071 35279 ft 439 kts 304°
2026-05-04 15:03 47.70461 6.72569 35503 ft 440 kts 304°
2026-05-04 15:03 47.72404 6.69051 35663 ft 441 kts 304°
2026-05-04 15:03 47.74344 6.65519 35850 ft 442 kts 303°
2026-05-04 15:04 47.76277 6.61952 36025 ft 443 kts 303°
2026-05-04 15:04 47.78221 6.58400 36054 ft 443 kts 304°
2026-05-04 15:04 47.82157 6.51334 36026 ft 443 kts 304°
2026-05-04 15:05 47.86069 6.44247 36020 ft 443 kts 304°
2026-05-04 15:05 47.89971 6.37123 36017 ft 444 kts 304°
2026-05-04 15:06 47.93872 6.29981 36014 ft 444 kts 304°
2026-05-04 15:07 47.99685 6.19282 36019 ft 442 kts 304°
2026-05-04 15:07 48.01620 6.15735 35917 ft 441 kts 304°
2026-05-04 15:07 48.03556 6.12168 35691 ft 442 kts 303°
2026-05-04 15:07 48.05494 6.08587 35458 ft 443 kts 303°
2026-05-04 15:08 48.07429 6.05016 35210 ft 443 kts 303°
2026-05-04 15:08 48.09369 6.01423 34970 ft 442 kts 303°
2026-05-04 15:08 48.11299 5.97838 34738 ft 443 kts 303°
2026-05-04 15:08 48.13234 5.94252 34506 ft 442 kts 303°
2026-05-04 15:09 48.15158 5.90662 34265 ft 443 kts 303°
2026-05-04 15:09 48.17091 5.87066 34024 ft 443 kts 303°
2026-05-04 15:09 48.19022 5.83467 33753 ft 443 kts 303°
2026-05-04 15:10 48.22882 5.76255 33193 ft 443 kts 302°
2026-05-04 15:10 48.24808 5.72640 32926 ft 443 kts 303°
2026-05-04 15:10 48.28668 5.65403 32431 ft 444 kts 303°
2026-05-04 15:11 48.30601 5.61769 32597 ft 446 kts 303°
2026-05-04 15:11 48.32534 5.58142 33040 ft 444 kts 303°
2026-05-04 15:11 48.34434 5.54549 33342 ft 445 kts 302°
2026-05-04 15:11 48.36360 5.50898 33664 ft 445 kts 302°
2026-05-04 15:12 48.38285 5.47259 33949 ft 446 kts 302°
2026-05-04 15:12 48.42146 5.39949 34094 ft 446 kts 303°
2026-05-04 15:12 48.44074 5.36290 34361 ft 445 kts 303°
2026-05-04 15:13 48.45999 5.32648 34646 ft 444 kts 303°
2026-05-04 15:13 48.47918 5.29000 34917 ft 443 kts 303°
2026-05-04 15:13 48.49828 5.25348 35155 ft 443 kts 303°
2026-05-04 15:13 48.51740 5.21708 35374 ft 443 kts 303°
2026-05-04 15:14 48.53656 5.18040 35613 ft 444 kts 303°
2026-05-04 15:14 48.55561 5.14366 35764 ft 445 kts 303°
2026-05-04 15:14 48.57458 5.10731 35920 ft 447 kts 303°
2026-05-04 15:15 48.61298 5.03332 35999 ft 447 kts 303°
2026-05-04 15:15 48.65122 4.95928 35972 ft 446 kts 303°
2026-05-04 15:16 48.70880 4.84833 35964 ft 447 kts 303°
2026-05-04 15:17 48.76607 4.73781 35964 ft 439 kts 303°
2026-05-04 15:17 48.82259 4.62752 35966 ft 445 kts 302°
2026-05-04 15:18 48.86038 4.55310 35960 ft 445 kts 303°
2026-05-04 15:19 48.91711 4.44217 35965 ft 445 kts 303°
2026-05-04 15:19 48.97360 4.33167 35959 ft 437 kts 302°
2026-05-04 15:20 49.01108 4.25738 35952 ft 445 kts 303°
2026-05-04 15:20 49.04871 4.18273 35944 ft 445 kts 303°
2026-05-04 15:21 49.08636 4.10776 35943 ft 444 kts 302°
2026-05-04 15:22 49.14241 3.99560 35936 ft 439 kts 303°
2026-05-04 15:22 49.19859 3.88481 35945 ft 444 kts 303°
2026-05-04 15:23 49.23613 3.80971 35962 ft 444 kts 302°
2026-05-04 15:23 49.27320 3.73497 35955 ft 443 kts 302°
2026-05-04 15:24 49.34770 3.58428 35956 ft 443 kts 302°
2026-05-04 15:25 49.38475 3.50880 35959 ft 442 kts 302°
2026-05-04 15:26 49.43958 3.39707 35959 ft 439 kts 302°
2026-05-04 15:26 49.49504 3.28363 35955 ft 442 kts 302°
2026-05-04 15:27 49.55011 3.17057 35955 ft 442 kts 302°
2026-05-04 15:28 49.60502 3.05717 35958 ft 434 kts 302°
2026-05-04 15:29 49.65955 2.94399 35961 ft 442 kts 302°
2026-05-04 15:30 49.78732 2.67713 35959 ft 440 kts 302°
2026-05-04 15:31 49.84147 2.56328 35958 ft 442 kts 302°
2026-05-04 15:32 49.93256 2.37064 35943 ft 443 kts 302°
2026-05-04 15:34 50.02231 2.17930 35946 ft 439 kts 302°
2026-05-04 15:34 50.07643 2.06305 35945 ft 442 kts 302°
2026-05-04 15:35 50.12995 1.94658 35944 ft 441 kts 302°
2026-05-04 15:36 50.18638 1.83395 35945 ft 437 kts 311°
2026-05-04 15:36 50.23028 1.76706 35962 ft 446 kts 313°
2026-05-04 15:37 50.27508 1.69899 35950 ft 447 kts 313°
2026-05-04 15:37 50.29724 1.66521 35324 ft 446 kts 312°
2026-05-04 15:37 50.31969 1.63080 34301 ft 455 kts 312°
2026-05-04 15:38 50.34243 1.59607 33541 ft 456 kts 312°
2026-05-04 15:38 50.36514 1.56191 33003 ft 450 kts 312°
2026-05-04 15:38 50.38759 1.52801 32383 ft 447 kts 312°
2026-05-04 15:38 50.40947 1.49459 31793 ft 443 kts 312°
2026-05-04 15:39 50.43142 1.46091 31308 ft 437 kts 312°
2026-05-04 15:39 50.45300 1.42765 30735 ft 433 kts 312°
2026-05-04 15:39 50.49542 1.36147 29678 ft 423 kts 310°
2026-05-04 15:40 50.51534 1.32779 29078 ft 419 kts 309°
2026-05-04 15:40 50.53506 1.29436 28477 ft 415 kts 310°
2026-05-04 15:40 50.55457 1.26127 27928 ft 411 kts 310°
2026-05-04 15:40 50.57390 1.22858 27425 ft 406 kts 310°
2026-05-04 15:41 50.59356 1.19708 26940 ft 401 kts 312°
2026-05-04 15:41 50.61317 1.16617 26456 ft 396 kts 312°
2026-05-04 15:41 50.63256 1.13557 25991 ft 392 kts 312°
2026-05-04 15:41 50.65170 1.10538 25567 ft 386 kts 312°
2026-05-04 15:42 50.67054 1.07562 25150 ft 381 kts 312°
2026-05-04 15:42 50.68914 1.04613 24707 ft 378 kts 312°
2026-05-04 15:42 50.70761 1.01684 24258 ft 374 kts 312°
2026-05-04 15:42 50.72587 0.98788 23836 ft 371 kts 312°
2026-05-04 15:43 50.74396 0.95913 23372 ft 367 kts 312°
2026-05-04 15:43 50.76189 0.93057 22900 ft 364 kts 312°
2026-05-04 15:43 50.77958 0.90237 22447 ft 359 kts 313°
2026-05-04 15:43 50.79686 0.87480 22009 ft 355 kts 313°
2026-05-04 15:44 50.81414 0.84712 21574 ft 351 kts 313°
2026-05-04 15:44 50.83123 0.81979 21161 ft 348 kts 313°
2026-05-04 15:44 50.84821 0.79262 20733 ft 346 kts 313°
2026-05-04 15:44 50.86507 0.76557 20324 ft 344 kts 313°
2026-05-04 15:45 50.88187 0.73860 19952 ft 343 kts 313°
2026-05-04 15:45 50.89857 0.71176 19582 ft 342 kts 313°
2026-05-04 15:45 50.91527 0.68493 19196 ft 341 kts 313°
2026-05-04 15:45 50.93190 0.65816 18824 ft 341 kts 313°
2026-05-04 15:46 50.94854 0.63138 18464 ft 341 kts 313°
2026-05-04 15:46 50.96522 0.60452 18074 ft 341 kts 313°
2026-05-04 15:46 50.98188 0.57758 17392 ft 345 kts 313°
2026-05-04 15:46 50.99878 0.55015 16732 ft 348 kts 313°
2026-05-04 15:47 51.01565 0.52285 16286 ft 345 kts 313°
2026-05-04 15:47 51.03241 0.49573 15789 ft 342 kts 313°
2026-05-04 15:47 51.04882 0.46910 15357 ft 339 kts 313°
2026-05-04 15:47 51.06530 0.44244 14905 ft 337 kts 314°
2026-05-04 15:48 51.08205 0.41655 14433 ft 335 kts 315°
2026-05-04 15:48 51.09887 0.39098 13971 ft 333 kts 315°
2026-05-04 15:48 51.13199 0.34052 13063 ft 328 kts 315°
2026-05-04 15:49 51.14845 0.31541 12590 ft 325 kts 315°
2026-05-04 15:49 51.15922 0.29894 12300 ft 323 kts 315°
2026-05-04 15:49 51.17539 0.27421 11821 ft 321 kts 315°
2026-05-04 15:49 51.19147 0.24955 11371 ft 319 kts 315°
2026-05-04 15:50 51.20737 0.22515 10930 ft 317 kts 315°
2026-05-04 15:50 51.22319 0.20085 10488 ft 315 kts 315°
2026-05-04 15:50 51.23889 0.17666 10081 ft 312 kts 315°
2026-05-04 15:50 51.25445 0.15270 9731 ft 307 kts 315°
2026-05-04 15:51 51.26960 0.12943 9532 ft 297 kts 315°
2026-05-04 15:51 51.28423 0.10689 9281 ft 289 kts 315°
2026-05-04 15:51 51.29865 0.08465 8862 ft 288 kts 315°
2026-05-04 15:51 51.31298 0.06249 8457 ft 286 kts 315°
2026-05-04 15:52 51.32705 0.04065 8119 ft 282 kts 315°
2026-05-04 15:52 51.34117 0.02032 7979 ft 273 kts 327°
2026-05-04 15:52 51.35882 0.01155 7963 ft 258 kts 359°
2026-05-04 15:52 51.37599 0.01724 7985 ft 252 kts 23°
2026-05-04 15:53 51.39042 0.03298 8006 ft 253 kts 46°
2026-05-04 15:53 51.39995 0.05658 8017 ft 253 kts 70°
2026-05-04 15:53 51.40290 0.08415 8025 ft 252 kts 92°
2026-05-04 15:53 51.39992 0.11173 8029 ft 252 kts 112°
2026-05-04 15:54 51.39168 0.13638 8029 ft 252 kts 124°
2026-05-04 15:54 51.38218 0.15993 8035 ft 252 kts 124°
2026-05-04 15:54 51.37274 0.18355 8034 ft 251 kts 123°
2026-05-04 15:54 51.36300 0.20672 8019 ft 249 kts 131°
2026-05-04 15:55 51.34971 0.22391 8015 ft 246 kts 155°
2026-05-04 15:55 51.33338 0.23124 8021 ft 245 kts 178°
2026-05-04 15:55 51.31648 0.22796 8004 ft 248 kts 200°
2026-05-04 15:55 51.30144 0.21462 8006 ft 248 kts 222°
2026-05-04 15:56 51.29102 0.19300 7994 ft 247 kts 245°
2026-05-04 15:56 51.28682 0.16667 7993 ft 245 kts 269°
2026-05-04 15:56 51.28929 0.13996 7993 ft 245 kts 290°
2026-05-04 15:56 51.29736 0.11588 8008 ft 247 kts 303°
2026-05-04 15:57 51.30674 0.09335 8004 ft 247 kts 303°